Terminal Aerodrome Forecast
Issued by NWS Norman, OK

Home | Current Version | Previous Version | Text Only | Print | Product List | Glossary On
Versions: 1 2 3 4 5 6 7 8 9 10 11 12
000
FTUS44 KOUN 010521
TAFSPS
TAF
KSPS 010521Z 0106/0206 06007KT P6SM FEW250
     FM011300 13009KT P6SM FEW250
     FM011800 16011G16KT P6SM BKN250=

USA.gov is the U.S. government's official web portal to all federal, state and local government web resources and services.